Terug naar catalogus

BREEZE-M DEB

ActiefHEO
NORAD 38597·DEBRIS·🇷🇺 Russia

Gelanceerd Mar 14, 2008 vanaf Baikonur Cosmodrome

Loading…

Volgende Passages (komende 24 uur)

TLE

VersSource: Space-Track

Epoch: Sep 14, 2026, 04:34 UTC

1 38597U 08011AU  26257.19085821  .00009459  00000-0  19896-1 0  9999
2 38597  48.5871 280.3564 6036211 232.2966  56.1723  3.82557305 35374

Volg BREEZE-M DEB in realtime met AllMySat

Download on the App Store